Time,TemperatureF,DewpointF,PressureIn,WindDirection,WindDirectionDegrees,WindSpeedMPH,WindSpeedGustMPH,Humidity,HourlyPrecipIn,Conditions,Clouds,dailyrainin,SoftwareType,DateUTC
2013-07-20 00:07:00,78.3,73.3,30.07,SSE,157,0.0,0.0,85,0.00,,,0.00,WUHU21623XXSP,2013-07-20 04:07:00,
2013-07-20 00:12:00,78.3,72.9,30.07,SSE,157,0.0,0.0,84,0.00,,,0.00,WUHU21623XXSP,2013-07-20 04:12:00,
2013-07-20 00:17:00,78.3,73.3,30.07,SSE,157,0.0,0.0,85,0.00,,,0.00,WUHU21623XXSP,2013-07-20 04:17:00,
2013-07-20 00:22:00,78.3,73.3,30.07,SSE,157,0.0,0.0,85,0.00,,,0.00,WUHU21623XXSP,2013-07-20 04:22:00,
2013-07-20 00:27:00,78.3,73.3,30.07,SSE,157,0.0,0.0,85,0.00,,,0.00,WUHU21623XXSP,2013-07-20 04:27:00,
2013-07-20 00:32:00,78.3,73.3,30.07,SE,135,0.0,0.0,85,0.00,,,0.00,WUHU21623XXSP,2013-07-20 04:32:00,
2013-07-20 00:37:00,78.3,72.9,30.07,SE,135,0.0,0.0,84,0.00,,,0.00,WUHU21623XXSP,2013-07-20 04:37:00,
2013-07-20 00:42:00,78.3,73.3,30.07,SE,135,0.0,0.0,85,0.00,,,0.00,WUHU21623XXSP,2013-07-20 04:42:00,
2013-07-20 00:47:00,78.6,73.6,30.07,South,180,0.0,0.0,85,0.00,,,0.00,WUHU21623XXSP,2013-07-20 04:47:00,
2013-07-20 00:52:00,78.4,73.8,30.07,SE,135,0.0,0.0,86,0.00,,,0.00,WUHU21623XXSP,2013-07-20 04:52:00,
2013-07-20 00:57:00,78.3,73.7,30.07,SE,135,0.0,0.0,86,0.00,,,0.00,WUHU21623XXSP,2013-07-20 04:57:00,
2013-07-20 01:02:00,78.3,73.7,30.07,ESE,112,0.0,0.0,86,0.00,,,0.00,WUHU21623XXSP,2013-07-20 05:02:00,
2013-07-20 01:07:00,78.3,74.0,30.07,SE,135,0.0,0.0,87,0.00,,,0.00,WUHU21623XXSP,2013-07-20 05:07:00,
2013-07-20 01:12:00,78.1,73.8,30.07,SSE,157,0.0,0.0,87,0.00,,,0.00,WUHU21623XXSP,2013-07-20 05:12:00,
2013-07-20 01:17:00,77.9,74.0,30.07,SSE,157,0.0,0.0,88,0.00,,,0.00,WUHU21623XXSP,2013-07-20 05:17:00,
2013-07-20 01:22:00,77.4,73.8,30.07,SE,135,0.0,0.0,89,0.00,,,0.00,WUHU21623XXSP,2013-07-20 05:22:00,
2013-07-20 01:27:00,77.2,73.6,30.06,ESE,112,0.0,0.0,89,0.00,,,0.00,WUHU21623XXSP,2013-07-20 05:27:00,
2013-07-20 01:32:00,77.0,73.8,30.06,SSE,157,0.0,0.0,90,0.00,,,0.00,WUHU21623XXSP,2013-07-20 05:32:00,
2013-07-20 01:37:00,76.8,73.6,30.06,SE,135,0.0,0.0,90,0.00,,,0.00,WUHU21623XXSP,2013-07-20 05:37:00,
2013-07-20 01:42:00,77.0,74.1,30.06,SSE,157,0.0,0.0,91,0.00,,,0.00,WUHU21623XXSP,2013-07-20 05:42:00,
2013-07-20 01:47:00,77.2,74.3,30.06,SSW,202,0.0,0.0,91,0.00,,,0.00,WUHU21623XXSP,2013-07-20 05:47:00,
2013-07-20 01:52:00,77.4,74.9,30.06,SSE,157,0.0,0.0,92,0.00,,,0.00,WUHU21623XXSP,2013-07-20 05:52:00,
2013-07-20 01:57:00,77.7,75.2,30.06,SE,135,0.0,0.0,92,0.00,,,0.00,WUHU21623XXSP,2013-07-20 05:57:00,
2013-07-20 02:02:00,77.7,75.2,30.06,SSE,157,0.0,0.0,92,0.00,,,0.00,WUHU21623XXSP,2013-07-20 06:02:00,
2013-07-20 02:07:00,77.7,75.2,30.06,SE,135,0.0,0.0,92,0.00,,,0.00,WUHU21623XXSP,2013-07-20 06:07:00,
2013-07-20 02:12:00,77.7,74.8,30.06,SE,135,0.0,0.0,91,0.00,,,0.00,WUHU21623XXSP,2013-07-20 06:12:00,
2013-07-20 02:17:00,77.7,74.8,30.05,SE,135,0.0,0.0,91,0.00,,,0.00,WUHU21623XXSP,2013-07-20 06:17:00,
2013-07-20 02:22:00,77.7,74.8,30.05,SE,135,0.0,0.0,91,0.00,,,0.00,WUHU21623XXSP,2013-07-20 06:22:00,
2013-07-20 02:27:00,77.7,74.8,30.05,SE,135,0.0,0.0,91,0.00,,,0.00,WUHU21623XXSP,2013-07-20 06:27:00,
2013-07-20 02:37:00,77.4,74.2,30.05,North,0,0.0,0.0,90,0.00,,,0.00,WUHU21623XXSP,2013-07-20 06:37:00,
2013-07-20 02:42:00,77.4,74.2,30.05,North,0,0.0,0.0,90,0.00,,,0.00,WUHU21623XXSP,2013-07-20 06:42:00,
2013-07-20 02:47:00,77.4,74.2,30.05,SSE,157,0.0,0.0,90,0.00,,,0.00,WUHU21623XXSP,2013-07-20 06:47:00,
2013-07-20 02:52:00,77.0,74.1,30.04,SE,135,0.0,0.0,91,0.00,,,0.00,WUHU21623XXSP,2013-07-20 06:52:00,
2013-07-20 02:57:00,76.8,73.9,30.04,SE,135,0.0,0.0,91,0.00,,,0.00,WUHU21623XXSP,2013-07-20 06:57:00,
2013-07-20 03:02:00,76.8,73.9,30.04,SE,135,0.0,0.0,91,0.00,,,0.00,WUHU21623XXSP,2013-07-20 07:02:00,
2013-07-20 03:07:00,76.6,73.7,30.04,SSE,157,0.0,0.0,91,0.00,,,0.00,WUHU21623XXSP,2013-07-20 07:07:00,
2013-07-20 03:12:00,76.8,74.3,30.04,SE,135,0.0,0.0,92,0.00,,,0.00,WUHU21623XXSP,2013-07-20 07:12:00,
2013-07-20 03:17:00,76.8,74.3,30.04,SSE,157,0.0,0.0,92,0.00,,,0.00,WUHU21623XXSP,2013-07-20 07:17:00,
2013-07-20 03:22:00,76.8,74.3,30.04,SSE,157,0.0,0.0,92,0.00,,,0.00,WUHU21623XXSP,2013-07-20 07:22:00,
2013-07-20 03:27:00,77.0,74.5,30.04,SSE,157,0.0,0.0,92,0.00,,,0.00,WUHU21623XXSP,2013-07-20 07:27:00,
2013-07-20 03:32:00,77.0,74.5,30.04,SSE,157,0.0,0.0,92,0.00,,,0.00,WUHU21623XXSP,2013-07-20 07:32:00,
2013-07-20 03:35:00,77.0,74.5,30.04,North,0,0.0,0.0,92,0.00,,,0.00,WUHU21623XXSP,2013-07-20 07:35:00,
2013-07-20 03:37:00,77.0,74.5,30.04,SSE,157,0.0,0.0,92,0.00,,,0.00,WUHU21623XXSP,2013-07-20 07:37:00,
2013-07-20 03:42:00,77.0,74.5,30.04,North,0,0.0,0.0,92,0.00,,,0.00,WUHU21623XXSP,2013-07-20 07:42:00,
2013-07-20 03:49:00,77.7,75.5,30.04,North,0,0.0,0.0,93,0.00,,,0.00,WUHU21623XXSP,2013-07-20 07:49:00,
2013-07-20 03:54:00,77.7,75.2,30.03,North,0,0.0,0.0,92,0.00,,,0.00,WUHU21623XXSP,2013-07-20 07:54:00,
2013-07-20 03:59:00,77.7,75.5,30.04,SSE,157,0.0,0.0,93,0.00,,,0.00,WUHU21623XXSP,2013-07-20 07:59:00,
2013-07-20 04:04:00,77.7,75.2,30.04,South,180,0.0,0.0,92,0.00,,,0.00,WUHU21623XXSP,2013-07-20 08:04:00,
2013-07-20 04:09:00,77.7,75.2,30.03,South,180,0.0,0.0,92,0.00,,,0.00,WUHU21623XXSP,2013-07-20 08:09:00,
2013-07-20 04:14:00,77.7,74.8,30.03,South,180,0.0,0.0,91,0.00,,,0.00,WUHU21623XXSP,2013-07-20 08:14:00,
2013-07-20 04:19:00,77.9,75.0,30.03,SSE,157,0.0,0.0,91,0.00,,,0.00,WUHU21623XXSP,2013-07-20 08:19:00,
2013-07-20 04:24:00,77.9,75.0,30.03,SSE,157,0.0,0.0,91,0.00,,,0.00,WUHU21623XXSP,2013-07-20 08:24:00,
2013-07-20 04:29:00,77.9,74.7,30.03,South,180,0.0,0.0,90,0.00,,,0.00,WUHU21623XXSP,2013-07-20 08:29:00,
2013-07-20 04:34:00,77.9,74.7,30.03,South,180,0.0,0.0,90,0.00,,,0.00,WUHU21623XXSP,2013-07-20 08:34:00,
2013-07-20 04:39:00,77.9,74.7,30.02,South,180,0.0,0.0,90,0.00,,,0.00,WUHU21623XXSP,2013-07-20 08:39:00,
2013-07-20 04:44:00,78.1,74.9,30.02,SSE,157,0.0,0.0,90,0.00,,,0.00,WUHU21623XXSP,2013-07-20 08:44:00,
2013-07-20 04:49:00,78.3,74.7,30.02,SE,135,0.0,0.0,89,0.00,,,0.00,WUHU21623XXSP,2013-07-20 08:49:00,
2013-07-20 04:54:00,78.3,74.7,30.02,SSE,157,0.0,0.0,89,0.00,,,0.00,WUHU21623XXSP,2013-07-20 08:54:00,
2013-07-20 04:59:00,78.3,74.7,30.02,South,180,0.0,0.0,89,0.00,,,0.00,WUHU21623XXSP,2013-07-20 08:59:00,
2013-07-20 05:04:00,78.3,74.7,30.02,SSW,202,0.0,0.0,89,0.00,,,0.00,WUHU21623XXSP,2013-07-20 09:04:00,
2013-07-20 05:09:00,78.3,74.7,30.02,SSE,157,0.0,0.0,89,0.00,,,0.00,WUHU21623XXSP,2013-07-20 09:09:00,
2013-07-20 05:14:00,78.3,74.7,30.02,West,270,0.0,0.0,89,0.00,,,0.00,WUHU21623XXSP,2013-07-20 09:14:00,
2013-07-20 05:19:00,78.4,74.8,30.01,SSW,202,0.0,0.0,89,0.00,,,0.00,WUHU21623XXSP,2013-07-20 09:19:00,
2013-07-20 05:24:00,78.3,74.7,30.02,South,180,0.0,0.0,89,0.00,,,0.00,WUHU21623XXSP,2013-07-20 09:24:00,
2013-07-20 05:29:00,78.3,74.4,30.02,South,180,0.0,0.0,88,0.00,,,0.00,WUHU21623XXSP,2013-07-20 09:29:00,
2013-07-20 05:34:00,78.4,74.5,30.02,South,180,0.0,0.0,88,0.00,,,0.00,WUHU21623XXSP,2013-07-20 09:34:00,
2013-07-20 05:39:00,78.4,74.5,30.02,South,180,0.0,0.0,88,0.00,,,0.00,WUHU21623XXSP,2013-07-20 09:39:00,
2013-07-20 05:44:00,78.6,74.7,30.02,SSE,157,0.0,0.0,88,0.00,,,0.00,WUHU21623XXSP,2013-07-20 09:44:00,
2013-07-20 05:50:00,78.6,74.7,30.02,SSE,157,0.0,0.0,88,0.00,,,0.00,WUHU21623XXSP,2013-07-20 09:50:00,
2013-07-20 05:54:00,78.6,74.7,30.03,SSW,202,0.0,0.0,88,0.00,,,0.00,WUHU21623XXSP,2013-07-20 09:54:00,
2013-07-20 05:59:00,78.4,74.5,30.03,SW,225,0.0,0.0,88,0.00,,,0.00,WUHU21623XXSP,2013-07-20 09:59:00,
2013-07-20 06:04:00,78.4,74.5,30.03,South,180,0.0,0.0,88,0.00,,,0.00,WUHU21623XXSP,2013-07-20 10:04:00,
2013-07-20 06:09:00,78.4,74.5,30.03,South,180,0.0,0.0,88,0.00,,,0.00,WUHU21623XXSP,2013-07-20 10:09:00,
2013-07-20 06:14:00,78.4,74.5,30.03,South,180,0.0,0.0,88,0.00,,,0.00,WUHU21623XXSP,2013-07-20 10:14:00,
2013-07-20 06:17:00,78.4,74.5,30.03,North,0,0.0,0.0,88,0.00,,,0.00,WUHU21623XXSP,2013-07-20 10:17:00,
2013-07-20 06:19:00,78.4,74.5,30.03,South,180,0.0,0.0,88,0.00,,,0.00,WUHU21623XXSP,2013-07-20 10:19:00,
2013-07-20 06:24:00,78.4,74.5,30.03,North,0,0.0,0.0,88,0.00,,,0.00,WUHU21623XXSP,2013-07-20 10:24:00,
2013-07-20 06:47:00,78.8,75.2,30.04,North,0,0.0,0.0,89,0.00,,,0.00,WUHU21623XXSP,2013-07-20 10:47:00,
2013-07-20 06:52:00,78.8,75.2,30.04,SSE,157,0.0,0.0,89,0.00,,,0.00,WUHU21623XXSP,2013-07-20 10:52:00,
2013-07-20 06:57:00,78.6,75.0,30.04,SSW,202,0.0,0.0,89,0.00,,,0.00,WUHU21623XXSP,2013-07-20 10:57:00,
2013-07-20 07:02:00,78.8,75.2,30.04,SSW,202,0.0,0.0,89,0.00,,,0.00,WUHU21623XXSP,2013-07-20 11:02:00,
2013-07-20 07:07:00,79.0,75.4,30.05,South,180,0.0,0.0,89,0.00,,,0.00,WUHU21623XXSP,2013-07-20 11:07:00,
2013-07-20 07:12:00,79.0,75.4,30.05,SSW,202,0.0,0.0,89,0.00,,,0.00,WUHU21623XXSP,2013-07-20 11:12:00,
2013-07-20 07:17:00,79.0,75.4,30.05,SSW,202,0.0,0.0,89,0.00,,,0.00,WUHU21623XXSP,2013-07-20 11:17:00,
2013-07-20 07:22:00,79.0,75.4,30.05,SSW,202,0.0,0.0,89,0.00,,,0.00,WUHU21623XXSP,2013-07-20 11:22:00,
2013-07-20 07:27:00,79.2,75.6,30.05,South,180,0.0,0.0,89,0.00,,,0.00,WUHU21623XXSP,2013-07-20 11:27:00,
2013-07-20 07:32:00,79.2,75.6,30.05,ESE,112,0.0,0.0,89,0.00,,,0.00,WUHU21623XXSP,2013-07-20 11:32:00,
2013-07-20 07:37:00,79.0,75.4,30.05,ESE,112,0.0,0.0,89,0.00,,,0.00,WUHU21623XXSP,2013-07-20 11:37:00,
2013-07-20 07:42:00,79.0,75.4,30.06,ESE,112,0.0,0.0,89,0.00,,,0.00,WUHU21623XXSP,2013-07-20 11:42:00,
2013-07-20 07:47:00,78.6,75.0,30.06,ESE,112,0.0,0.0,89,0.00,,,0.00,WUHU21623XXSP,2013-07-20 11:47:00,
2013-07-20 07:52:00,78.4,74.8,30.06,ESE,112,0.0,0.0,89,0.00,,,0.00,WUHU21623XXSP,2013-07-20 11:52:00,
2013-07-20 07:57:00,78.3,74.7,30.06,ESE,112,0.0,0.0,89,0.00,,,0.00,WUHU21623XXSP,2013-07-20 11:57:00,
2013-07-20 08:02:00,78.3,74.7,30.06,ESE,112,0.0,0.0,89,0.00,,,0.00,WUHU21623XXSP,2013-07-20 12:02:00,
2013-07-20 08:07:00,78.3,74.7,30.07,ESE,112,0.0,0.0,89,0.00,,,0.00,WUHU21623XXSP,2013-07-20 12:07:00,
2013-07-20 08:12:00,78.3,74.7,30.07,ESE,112,0.0,0.0,89,0.00,,,0.00,WUHU21623XXSP,2013-07-20 12:12:00,
2013-07-20 08:17:00,78.3,74.7,30.07,ESE,112,0.0,0.0,89,0.00,,,0.00,WUHU21623XXSP,2013-07-20 12:17:00,
2013-07-20 08:22:00,78.3,74.7,30.06,ESE,112,0.0,0.0,89,0.00,,,0.00,WUHU21623XXSP,2013-07-20 12:22:00,
2013-07-20 08:27:00,77.9,74.7,30.06,ESE,112,0.0,0.0,90,0.00,,,0.00,WUHU21623XXSP,2013-07-20 12:27:00,
2013-07-20 08:32:00,77.9,74.7,30.07,ESE,112,0.0,0.0,90,0.00,,,0.00,WUHU21623XXSP,2013-07-20 12:32:00,
2013-07-20 08:37:00,77.9,74.7,30.07,SE,135,0.0,0.0,90,0.00,,,0.00,WUHU21623XXSP,2013-07-20 12:37:00,
2013-07-20 08:42:00,78.3,75.1,30.07,SE,135,0.0,0.0,90,0.00,,,0.00,WUHU21623XXSP,2013-07-20 12:42:00,
2013-07-20 08:47:00,78.3,75.1,30.07,SE,135,0.0,0.0,90,0.00,,,0.00,WUHU21623XXSP,2013-07-20 12:47:00,
2013-07-20 08:52:00,78.3,75.1,30.07,ESE,112,0.0,0.0,90,0.00,,,0.00,WUHU21623XXSP,2013-07-20 12:52:00,
2013-07-20 08:57:00,78.3,75.1,30.07,SE,135,0.0,0.0,90,0.00,,,0.00,WUHU21623XXSP,2013-07-20 12:57:00,
2013-07-20 09:02:00,78.3,75.1,30.07,SE,135,0.0,0.0,90,0.00,,,0.00,WUHU21623XXSP,2013-07-20 13:02:00,
2013-07-20 09:07:00,78.3,75.1,30.07,SE,135,0.0,0.0,90,0.00,,,0.00,WUHU21623XXSP,2013-07-20 13:07:00,
2013-07-20 09:12:00,78.3,75.1,30.07,SE,135,0.0,0.0,90,0.00,,,0.00,WUHU21623XXSP,2013-07-20 13:12:00,
2013-07-20 09:17:00,78.3,75.1,30.07,SE,135,0.0,0.0,90,0.00,,,0.00,WUHU21623XXSP,2013-07-20 13:17:00,
2013-07-20 09:22:00,78.1,74.9,30.07,SE,135,0.0,0.0,90,0.00,,,0.00,WUHU21623XXSP,2013-07-20 13:22:00,
2013-07-20 09:26:00,77.9,74.7,30.07,SE,135,0.0,0.0,90,0.00,,,0.00,WUHU21623XXSP,2013-07-20 13:26:00,
2013-07-20 09:31:00,77.7,74.5,30.07,SE,135,0.0,0.0,90,0.00,,,0.00,WUHU21623XXSP,2013-07-20 13:31:00,
2013-07-20 09:36:00,77.7,74.8,30.07,ESE,112,0.0,0.0,91,0.00,,,0.00,WUHU21623XXSP,2013-07-20 13:36:00,
2013-07-20 09:41:00,77.7,75.2,30.07,ESE,112,0.0,0.0,92,0.00,,,0.00,WUHU21623XXSP,2013-07-20 13:41:00,
2013-07-20 09:46:00,77.5,75.0,30.07,ESE,112,0.0,0.0,92,0.00,,,0.00,WUHU21623XXSP,2013-07-20 13:46:00,
2013-07-20 09:51:00,77.7,75.2,30.07,ESE,112,0.0,0.0,92,0.00,,,0.00,WUHU21623XXSP,2013-07-20 13:51:00,
2013-07-20 09:56:00,77.7,75.2,30.07,ESE,112,0.0,0.0,92,0.00,,,0.00,WUHU21623XXSP,2013-07-20 13:56:00,
2013-07-20 10:01:00,77.9,75.0,30.07,ESE,112,0.0,0.0,91,0.00,,,0.00,WUHU21623XXSP,2013-07-20 14:01:00,
2013-07-20 10:06:00,78.3,75.8,30.07,ESE,112,0.0,0.0,92,0.00,,,0.00,WUHU21623XXSP,2013-07-20 14:06:00,
2013-07-20 10:11:00,78.4,75.9,30.07,ESE,112,0.0,0.0,92,0.00,,,0.00,WUHU21623XXSP,2013-07-20 14:11:00,
2013-07-20 10:16:00,79.0,76.5,30.07,ESE,112,0.0,0.0,92,0.00,,,0.00,WUHU21623XXSP,2013-07-20 14:16:00,
2013-07-20 10:21:00,79.3,76.8,30.07,SSE,157,0.0,0.0,92,0.00,,,0.00,WUHU21623XXSP,2013-07-20 14:21:00,
2013-07-20 10:26:00,79.7,76.8,30.07,SSE,157,0.0,0.0,91,0.00,,,0.00,WUHU21623XXSP,2013-07-20 14:26:00,
2013-07-20 10:31:00,80.1,77.2,30.07,SE,135,0.0,0.0,91,0.00,,,0.00,WUHU21623XXSP,2013-07-20 14:31:00,
2013-07-20 10:36:00,80.1,77.2,30.07,ESE,112,0.0,0.0,91,0.00,,,0.00,WUHU21623XXSP,2013-07-20 14:36:00,
2013-07-20 10:41:00,80.2,77.3,30.08,ESE,112,0.0,0.0,91,0.00,,,0.00,WUHU21623XXSP,2013-07-20 14:41:00,
2013-07-20 10:46:00,80.2,77.3,30.08,ESE,112,0.0,0.0,91,0.00,,,0.00,WUHU21623XXSP,2013-07-20 14:46:00,
2013-07-20 10:51:00,80.1,77.2,30.08,SE,135,0.0,0.0,91,0.00,,,0.00,WUHU21623XXSP,2013-07-20 14:51:00,
2013-07-20 10:56:00,80.2,77.3,30.08,SE,135,0.0,0.0,91,0.00,,,0.00,WUHU21623XXSP,2013-07-20 14:56:00,
2013-07-20 11:01:00,80.2,77.3,30.08,SE,135,0.0,0.0,91,0.00,,,0.00,WUHU21623XXSP,2013-07-20 15:01:00,
2013-07-20 11:06:00,80.2,77.3,30.08,SE,135,0.0,0.0,91,0.00,,,0.00,WUHU21623XXSP,2013-07-20 15:06:00,
2013-07-20 11:11:00,80.8,78.2,30.08,SE,135,0.0,0.0,92,0.00,,,0.00,WUHU21623XXSP,2013-07-20 15:11:00,
2013-07-20 11:16:00,81.1,78.5,30.08,SW,225,0.0,0.0,92,0.00,,,0.00,WUHU21623XXSP,2013-07-20 15:16:00,
2013-07-20 11:21:00,81.9,79.0,30.08,SE,135,0.0,0.0,91,0.00,,,0.00,WUHU21623XXSP,2013-07-20 15:21:00,
2013-07-20 11:26:00,82.6,79.3,30.07,SW,225,0.0,0.0,90,0.00,,,0.00,WUHU21623XXSP,2013-07-20 15:26:00,
2013-07-20 11:31:00,83.1,79.8,30.08,SW,225,0.0,0.0,90,0.00,,,0.00,WUHU21623XXSP,2013-07-20 15:31:00,
2013-07-20 11:37:00,83.8,79.4,30.08,WSW,247,0.0,0.0,87,0.00,,,0.00,WUHU21623XXSP,2013-07-20 15:37:00,
2013-07-20 11:42:00,84.6,78.4,30.08,SSW,202,0.0,0.0,81,0.00,,,0.00,WUHU21623XXSP,2013-07-20 15:42:00,
2013-07-20 11:47:00,85.1,78.1,30.09,SW,225,0.0,0.0,79,0.00,,,0.00,WUHU21623XXSP,2013-07-20 15:47:00,
2013-07-20 11:52:00,84.9,77.5,30.07,SSW,202,0.0,0.0,78,0.00,,,0.00,WUHU21623XXSP,2013-07-20 15:52:00,
2013-07-20 11:57:00,83.8,75.6,30.07,SW,225,0.0,0.0,76,0.00,,,0.00,WUHU21623XXSP,2013-07-20 15:57:00,
2013-07-20 12:02:00,83.1,74.9,30.07,SSW,202,0.0,0.0,76,0.00,,,0.00,WUHU21623XXSP,2013-07-20 16:02:00,
2013-07-20 12:07:00,82.6,74.8,30.08,SSW,202,0.0,0.0,77,0.00,,,0.00,WUHU21623XXSP,2013-07-20 16:07:00,
2013-07-20 12:12:00,82.4,74.6,30.09,SSE,157,0.0,0.0,77,0.00,,,0.00,WUHU21623XXSP,2013-07-20 16:12:00,
2013-07-20 12:17:00,82.0,74.6,30.08,South,180,0.0,0.0,78,0.00,,,0.00,WUHU21623XXSP,2013-07-20 16:17:00,
2013-07-20 12:22:00,81.9,74.6,30.08,SSE,157,0.0,0.0,78,0.00,,,0.00,WUHU21623XXSP,2013-07-20 16:22:00,
2013-07-20 12:27:00,81.5,74.6,30.08,SSE,157,0.0,0.0,79,0.00,,,0.00,WUHU21623XXSP,2013-07-20 16:27:00,
2013-07-20 12:32:00,81.3,74.4,30.08,South,180,0.0,0.0,79,0.00,,,0.00,WUHU21623XXSP,2013-07-20 16:32:00,
2013-07-20 12:37:00,81.0,74.1,30.08,SE,135,0.0,0.0,79,0.00,,,0.00,WUHU21623XXSP,2013-07-20 16:37:00,
2013-07-20 12:42:00,80.8,74.3,30.08,SE,135,0.0,0.0,80,0.00,,,0.00,WUHU21623XXSP,2013-07-20 16:42:00,
2013-07-20 12:47:00,80.4,73.5,30.08,SE,135,0.0,0.0,79,0.00,,,0.00,WUHU21623XXSP,2013-07-20 16:47:00,
2013-07-20 12:52:00,80.1,73.2,30.07,SE,135,0.0,0.0,79,0.00,,,0.00,WUHU21623XXSP,2013-07-20 16:52:00,
2013-07-20 12:57:00,79.7,72.8,30.08,SE,135,0.0,0.0,79,0.00,,,0.00,WUHU21623XXSP,2013-07-20 16:57:00,
2013-07-20 13:02:00,79.5,73.0,30.08,SE,135,0.0,0.0,80,0.00,,,0.00,WUHU21623XXSP,2013-07-20 17:02:00,
2013-07-20 13:07:00,79.5,73.4,30.09,SE,135,0.0,0.0,81,0.00,,,0.00,WUHU21623XXSP,2013-07-20 17:07:00,
2013-07-20 13:12:00,79.2,73.1,30.08,ESE,112,0.0,0.0,81,0.00,,,0.00,WUHU21623XXSP,2013-07-20 17:12:00,
2013-07-20 13:17:00,79.0,72.9,30.08,ESE,112,0.0,0.0,81,0.00,,,0.00,WUHU21623XXSP,2013-07-20 17:17:00,
2013-07-20 13:22:00,78.4,72.3,30.08,ESE,112,0.0,0.0,81,0.00,,,0.00,WUHU21623XXSP,2013-07-20 17:22:00,
2013-07-20 13:27:00,78.4,72.3,30.08,ESE,112,0.0,0.0,81,0.00,,,0.00,WUHU21623XXSP,2013-07-20 17:27:00,
2013-07-20 13:32:00,78.6,72.9,30.08,ESE,112,0.0,0.0,82,0.00,,,0.00,WUHU21623XXSP,2013-07-20 17:32:00,
2013-07-20 13:34:00,79.0,73.3,30.07,ESE,112,0.0,0.0,82,0.00,,,0.00,WUHU21623XXSP,2013-07-20 17:34:00,
2013-07-20 13:37:00,79.0,73.3,30.07,SE,135,0.0,0.0,82,0.00,,,0.00,WUHU21623XXSP,2013-07-20 17:37:00,
2013-07-20 13:42:00,79.5,74.1,30.07,ESE,112,0.0,0.0,84,0.00,,,0.00,WUHU21623XXSP,2013-07-20 17:42:00,
2013-07-20 13:47:00,79.7,74.3,30.07,SE,135,0.0,0.0,84,0.00,,,0.00,WUHU21623XXSP,2013-07-20 17:47:00,
2013-07-20 13:52:00,80.1,74.3,30.06,SE,135,0.0,0.0,82,0.00,,,0.00,WUHU21623XXSP,2013-07-20 17:52:00,
2013-07-20 13:57:00,80.2,74.1,30.06,SSE,157,0.0,0.0,81,0.00,,,0.00,WUHU21623XXSP,2013-07-20 17:57:00,
2013-07-20 14:02:00,80.4,74.2,30.06,SSE,157,0.0,0.0,81,0.00,,,0.00,WUHU21623XXSP,2013-07-20 18:02:00,
2013-07-20 14:06:00,81.0,74.5,30.06,SE,135,0.0,0.0,80,0.00,,,0.00,WUHU21623XXSP,2013-07-20 18:06:00,
2013-07-20 14:12:00,81.3,74.7,30.06,SE,135,0.0,0.0,80,0.00,,,0.00,WUHU21623XXSP,2013-07-20 18:12:00,
2013-07-20 14:17:00,82.0,75.4,30.06,SE,135,0.0,0.0,80,0.00,,,0.00,WUHU21623XXSP,2013-07-20 18:17:00,
2013-07-20 14:22:00,83.3,76.7,30.05,SE,135,0.0,0.0,80,0.00,,,0.00,WUHU21623XXSP,2013-07-20 18:22:00,
2013-07-20 14:27:00,84.6,77.2,30.05,SE,135,0.0,0.0,78,0.00,,,0.00,WUHU21623XXSP,2013-07-20 18:27:00,
2013-07-20 14:32:00,86.2,78.3,30.05,SE,135,0.0,0.0,77,0.00,,,0.00,WUHU21623XXSP,2013-07-20 18:32:00,
2013-07-20 14:37:00,86.7,76.3,30.05,ESE,112,0.0,0.0,71,0.00,,,0.00,WUHU21623XXSP,2013-07-20 18:37:00,
2013-07-20 14:42:00,86.2,75.8,30.05,ESE,112,0.0,0.0,71,0.00,,,0.00,WUHU21623XXSP,2013-07-20 18:42:00,
2013-07-20 14:47:00,86.2,75.8,30.05,SE,135,0.0,0.0,71,0.00,,,0.00,WUHU21623XXSP,2013-07-20 18:47:00,
2013-07-20 14:53:00,86.2,75.8,30.05,SSE,157,0.0,0.0,71,0.00,,,0.00,WUHU21623XXSP,2013-07-20 18:53:00,
2013-07-20 14:58:00,86.0,75.6,30.05,SSE,157,0.0,0.0,71,0.00,,,0.00,WUHU21623XXSP,2013-07-20 18:58:00,
2013-07-20 15:03:00,85.6,75.2,30.04,ESE,112,0.0,0.0,71,0.00,,,0.00,WUHU21623XXSP,2013-07-20 19:03:00,
2013-07-20 15:08:00,85.1,74.3,30.04,ESE,112,0.0,0.0,70,0.00,,,0.00,WUHU21623XXSP,2013-07-20 19:08:00,
2013-07-20 15:13:00,84.7,74.3,30.04,SE,135,0.0,0.0,71,0.00,,,0.00,WUHU21623XXSP,2013-07-20 19:13:00,
2013-07-20 15:18:00,84.2,73.9,30.04,East,90,0.0,0.0,71,0.00,,,0.00,WUHU21623XXSP,2013-07-20 19:18:00,
2013-07-20 15:24:00,83.7,73.4,30.04,ESE,112,0.0,0.0,71,0.00,,,0.00,WUHU21623XXSP,2013-07-20 19:24:00,
2013-07-20 15:29:00,83.7,73.8,30.04,ESE,112,0.0,0.0,72,0.00,,,0.00,WUHU21623XXSP,2013-07-20 19:29:00,
2013-07-20 15:34:00,83.8,74.3,30.03,ESE,112,0.0,0.0,73,0.00,,,0.00,WUHU21623XXSP,2013-07-20 19:34:00,
2013-07-20 15:39:00,83.8,74.3,30.03,ESE,112,0.0,0.0,73,0.00,,,0.00,WUHU21623XXSP,2013-07-20 19:39:00,
2013-07-20 15:44:00,84.4,75.3,30.03,SE,135,0.0,0.0,74,0.00,,,0.00,WUHU21623XXSP,2013-07-20 19:44:00,
2013-07-20 15:49:00,84.6,75.5,30.03,ESE,112,0.0,0.0,74,0.00,,,0.00,WUHU21623XXSP,2013-07-20 19:49:00,
2013-07-20 15:54:00,84.7,75.6,30.03,ESE,112,0.0,0.0,74,0.00,,,0.00,WUHU21623XXSP,2013-07-20 19:54:00,
2013-07-20 16:00:00,85.5,76.4,30.03,SE,135,0.0,0.0,74,0.00,,,0.00,WUHU21623XXSP,2013-07-20 20:00:00,
2013-07-20 16:05:00,85.6,76.5,30.03,SE,135,0.0,0.0,74,0.00,,,0.00,WUHU21623XXSP,2013-07-20 20:05:00,
2013-07-20 16:10:00,85.6,76.1,30.03,SE,135,0.0,0.0,73,0.00,,,0.00,WUHU21623XXSP,2013-07-20 20:10:00,
2013-07-20 16:15:00,85.5,76.0,30.03,East,90,0.0,0.0,73,0.00,,,0.00,WUHU21623XXSP,2013-07-20 20:15:00,
2013-07-20 16:20:00,85.6,76.1,30.03,East,90,0.0,0.0,73,0.00,,,0.00,WUHU21623XXSP,2013-07-20 20:20:00,
2013-07-20 16:25:00,85.8,76.3,30.03,SSW,202,0.0,0.0,73,0.00,,,0.00,WUHU21623XXSP,2013-07-20 20:25:00,
2013-07-20 16:30:00,86.2,76.2,30.03,SSW,202,0.0,0.0,72,0.00,,,0.00,WUHU21623XXSP,2013-07-20 20:30:00,
2013-07-20 16:35:00,86.2,75.8,30.02,SSW,202,0.0,0.0,71,0.00,,,0.00,WUHU21623XXSP,2013-07-20 20:35:00,
2013-07-20 16:40:00,86.2,74.9,30.02,SSW,202,0.0,0.0,69,0.00,,,0.00,WUHU21623XXSP,2013-07-20 20:40:00,
2013-07-20 16:46:00,85.6,74.3,30.02,South,180,0.0,0.0,69,0.00,,,0.00,WUHU21623XXSP,2013-07-20 20:46:00,
2013-07-20 16:51:00,85.5,74.2,30.02,SSW,202,0.0,0.0,69,0.00,,,0.00,WUHU21623XXSP,2013-07-20 20:51:00,
2013-07-20 16:56:00,85.5,74.2,30.02,SSW,202,0.0,0.0,69,0.00,,,0.00,WUHU21623XXSP,2013-07-20 20:56:00,
2013-07-20 17:01:00,85.5,74.2,30.02,SSW,202,0.0,0.0,69,0.00,,,0.00,WUHU21623XXSP,2013-07-20 21:01:00,
2013-07-20 17:06:00,79.3,71.6,30.02,NW,315,0.0,0.0,77,0.00,,,0.00,WUHU21623XXSP,2013-07-20 21:06:00,
2013-07-20 17:11:00,79.0,72.9,30.01,North,0,0.0,0.0,81,0.00,,,0.00,WUHU21623XXSP,2013-07-20 21:11:00,
2013-07-20 17:17:00,78.4,72.7,30.01,North,0,0.0,0.0,82,0.00,,,0.00,WUHU21623XXSP,2013-07-20 21:17:00,
2013-07-20 17:22:00,77.9,72.2,30.01,East,90,0.0,0.0,82,0.00,,,0.00,WUHU21623XXSP,2013-07-20 21:22:00,
2013-07-20 17:27:00,77.9,72.9,30.01,East,90,0.0,0.0,85,0.00,,,0.00,WUHU21623XXSP,2013-07-20 21:27:00,
2013-07-20 17:32:00,77.9,73.6,30.01,East,90,0.0,0.0,87,0.00,,,0.00,WUHU21623XXSP,2013-07-20 21:32:00,
2013-07-20 17:37:00,77.9,74.0,30.01,East,90,0.0,0.0,88,0.00,,,0.00,WUHU21623XXSP,2013-07-20 21:37:00,
2013-07-20 17:42:00,77.9,74.0,30.01,East,90,0.0,0.0,88,0.00,,,0.00,WUHU21623XXSP,2013-07-20 21:42:00,
2013-07-20 17:47:00,81.9,77.6,30.00,East,90,0.0,0.0,87,0.00,,,0.00,WUHU21623XXSP,2013-07-20 21:47:00,
2013-07-20 17:52:00,82.2,77.9,29.99,East,90,0.0,0.0,87,0.00,,,0.00,WUHU21623XXSP,2013-07-20 21:52:00,
2013-07-20 17:58:00,83.3,77.8,29.99,East,90,0.0,0.0,84,0.04,,,0.04,WUHU21623XXSP,2013-07-20 21:58:00,
2013-07-20 18:03:00,83.7,77.9,29.99,East,90,0.0,0.0,82,0.04,,,0.04,WUHU21623XXSP,2013-07-20 22:03:00,
2013-07-20 18:08:00,83.3,76.7,30.00,ENE,67,0.0,0.0,80,0.04,,,0.04,WUHU21623XXSP,2013-07-20 22:08:00,
2013-07-20 18:13:00,82.8,76.6,29.99,NE,45,0.0,0.0,81,0.04,,,0.04,WUHU21623XXSP,2013-07-20 22:13:00,
2013-07-20 18:18:00,81.9,75.7,30.00,NE,45,0.0,0.0,81,0.04,,,0.04,WUHU21623XXSP,2013-07-20 22:18:00,
2013-07-20 18:24:00,81.5,75.7,30.00,NE,45,0.0,0.0,82,0.04,,,0.04,WUHU21623XXSP,2013-07-20 22:24:00,
2013-07-20 18:30:00,81.0,75.6,30.00,NE,45,0.0,0.0,84,0.04,,,0.04,WUHU21623XXSP,2013-07-20 22:30:00,
2013-07-20 18:35:00,80.8,75.8,30.00,NE,45,0.0,0.0,85,0.04,,,0.04,WUHU21623XXSP,2013-07-20 22:35:00,
2013-07-20 18:39:00,80.8,76.1,30.00,NE,45,0.0,0.0,86,0.04,,,0.04,WUHU21623XXSP,2013-07-20 22:39:00,
2013-07-20 18:40:00,80.8,76.1,30.00,NE,45,0.0,0.0,86,0.04,,,0.04,WUHU21623XXSP,2013-07-20 22:40:00,
2013-07-20 18:45:00,80.8,76.1,30.00,NE,45,0.0,0.0,86,0.04,,,0.04,WUHU21623XXSP,2013-07-20 22:45:00,
2013-07-20 18:51:00,80.4,76.1,30.01,NE,45,0.0,0.0,87,0.00,,,0.04,WUHU21623XXSP,2013-07-20 22:51:00,
2013-07-20 18:56:00,80.4,76.1,30.01,NE,45,0.0,0.0,87,0.00,,,0.04,WUHU21623XXSP,2013-07-20 22:56:00,
2013-07-20 19:01:00,80.1,75.8,30.01,NE,45,0.0,0.0,87,0.00,,,0.04,WUHU21623XXSP,2013-07-20 23:01:00,
2013-07-20 19:06:00,79.9,75.6,30.01,NE,45,0.0,0.0,87,0.00,,,0.04,WUHU21623XXSP,2013-07-20 23:06:00,
2013-07-20 19:11:00,79.9,75.6,30.01,NE,45,0.0,0.0,87,0.00,,,0.04,WUHU21623XXSP,2013-07-20 23:11:00,
2013-07-20 19:16:00,79.5,75.9,30.01,ENE,67,0.0,0.0,89,0.00,,,0.04,WUHU21623XXSP,2013-07-20 23:16:00,
2013-07-20 19:21:00,79.5,75.9,30.01,ENE,67,0.0,0.0,89,0.00,,,0.04,WUHU21623XXSP,2013-07-20 23:21:00,
2013-07-20 19:27:00,79.3,75.7,30.02,ENE,67,0.0,0.0,89,0.00,,,0.04,WUHU21623XXSP,2013-07-20 23:27:00,
2013-07-20 19:32:00,79.2,75.6,30.02,ENE,67,0.0,0.0,89,0.00,,,0.04,WUHU21623XXSP,2013-07-20 23:32:00,
2013-07-20 19:37:00,79.2,75.6,30.01,ENE,67,0.0,0.0,89,0.00,,,0.04,WUHU21623XXSP,2013-07-20 23:37:00,
2013-07-20 19:42:00,79.0,75.4,30.01,ENE,67,0.0,0.0,89,0.00,,,0.04,WUHU21623XXSP,2013-07-20 23:42:00,
2013-07-20 19:47:00,79.0,75.8,30.01,ENE,67,0.0,0.0,90,0.00,,,0.04,WUHU21623XXSP,2013-07-20 23:47:00,
2013-07-20 19:52:00,78.6,75.4,30.02,West,270,0.0,0.0,90,0.00,,,0.04,WUHU21623XXSP,2013-07-20 23:52:00,
2013-07-20 19:58:00,77.7,74.5,30.02,WSW,247,0.0,0.0,90,0.02,,,0.04,WUHU21623XXSP,2013-07-20 23:58:00,
2013-07-20 20:03:00,75.6,72.4,30.02,WNW,292,0.0,0.0,90,0.08,,,0.10,WUHU21623XXSP,2013-07-21 00:03:00,
2013-07-20 20:08:00,74.8,72.0,30.02,WNW,292,0.0,0.0,91,0.12,,,0.14,WUHU21623XXSP,2013-07-21 00:08:00,
2013-07-20 20:13:00,74.5,71.7,30.02,WNW,292,0.0,0.0,91,0.12,,,0.16,WUHU21623XXSP,2013-07-21 00:13:00,
2013-07-20 20:18:00,74.3,72.1,30.02,WNW,292,0.0,0.0,93,0.14,,,0.18,WUHU21623XXSP,2013-07-21 00:18:00,
2013-07-20 20:23:00,74.1,71.9,30.02,NNW,337,0.0,0.0,93,0.14,,,0.18,WUHU21623XXSP,2013-07-21 00:23:00,
2013-07-20 20:28:00,73.9,72.4,30.02,WNW,292,0.0,0.0,95,0.14,,,0.18,WUHU21623XXSP,2013-07-21 00:28:00,
2013-07-20 20:33:00,73.9,72.4,30.02,WNW,292,0.0,0.0,95,0.14,,,0.18,WUHU21623XXSP,2013-07-21 00:33:00,
2013-07-20 20:38:00,73.9,72.4,30.02,WNW,292,0.0,0.0,95,0.14,,,0.18,WUHU21623XXSP,2013-07-21 00:38:00,
2013-07-20 20:43:00,73.9,72.4,30.02,WNW,292,0.0,0.0,95,0.14,,,0.18,WUHU21623XXSP,2013-07-21 00:43:00,
2013-07-20 20:47:00,73.9,72.4,30.03,North,0,0.0,0.0,95,0.14,,,0.18,WUHU21623XXSP,2013-07-21 00:47:00,
2013-07-20 20:48:00,73.9,72.4,30.03,WNW,292,0.0,0.0,95,0.14,,,0.18,WUHU21623XXSP,2013-07-21 00:48:00,
2013-07-20 20:54:00,73.9,72.4,30.03,WNW,292,0.0,0.0,95,0.14,,,0.18,WUHU21623XXSP,2013-07-21 00:54:00,
2013-07-20 21:11:00,74.1,74.1,30.04,North,0,0.0,0.0,100,0.02,,,0.18,WUHU21623XXSP,2013-07-21 01:11:00,
2013-07-20 21:16:00,74.1,74.1,30.04,North,0,0.0,0.0,100,0.00,,,0.18,WUHU21623XXSP,2013-07-21 01:16:00,
2013-07-20 21:21:00,74.1,74.1,30.04,ESE,112,0.0,0.0,100,0.00,,,0.18,WUHU21623XXSP,2013-07-21 01:21:00,
2013-07-20 21:26:00,73.6,73.6,30.04,SSW,202,0.0,0.0,100,0.00,,,0.18,WUHU21623XXSP,2013-07-21 01:26:00,
2013-07-20 21:31:00,73.2,73.2,30.04,WSW,247,0.0,0.0,100,0.00,,,0.18,WUHU21623XXSP,2013-07-21 01:31:00,
2013-07-20 21:37:00,72.7,72.7,30.04,WSW,247,0.0,0.0,100,0.02,,,0.20,WUHU21623XXSP,2013-07-21 01:37:00,
2013-07-20 21:42:00,72.5,72.5,30.04,WSW,247,0.0,0.0,100,0.02,,,0.20,WUHU21623XXSP,2013-07-21 01:42:00,
2013-07-20 21:47:00,72.7,72.7,30.04,WSW,247,0.0,0.0,100,0.02,,,0.20,WUHU21623XXSP,2013-07-21 01:47:00,
2013-07-20 21:52:00,72.5,72.5,30.04,West,270,0.0,0.0,100,0.02,,,0.20,WUHU21623XXSP,2013-07-21 01:52:00,
2013-07-20 21:58:00,72.5,72.5,30.05,West,270,0.0,0.0,100,0.02,,,0.20,WUHU21623XXSP,2013-07-21 01:58:00,
2013-07-20 22:03:00,72.9,72.9,30.05,NE,45,0.0,0.0,100,0.02,,,0.20,WUHU21623XXSP,2013-07-21 02:03:00,
2013-07-20 22:09:00,72.9,72.9,30.05,NE,45,0.0,0.0,100,0.02,,,0.20,WUHU21623XXSP,2013-07-21 02:09:00,
2013-07-20 22:14:00,72.9,72.9,30.05,NE,45,0.0,0.0,100,0.02,,,0.20,WUHU21623XXSP,2013-07-21 02:14:00,
2013-07-20 22:19:00,72.9,72.9,30.05,North,0,0.0,0.0,100,0.02,,,0.20,WUHU21623XXSP,2013-07-21 02:19:00,
2013-07-20 22:24:00,72.9,72.9,30.06,North,0,0.0,0.0,100,0.02,,,0.20,WUHU21623XXSP,2013-07-21 02:24:00,
2013-07-20 22:29:00,73.8,73.8,30.05,North,0,0.0,0.0,100,0.02,,,0.20,WUHU21623XXSP,2013-07-21 02:29:00,
2013-07-20 22:32:00,73.8,73.8,30.06,North,0,0.0,0.0,100,0.02,,,0.20,WUHU21623XXSP,2013-07-21 02:32:00,
2013-07-20 22:34:00,73.8,73.8,30.06,North,0,0.0,0.0,100,0.02,,,0.20,WUHU21623XXSP,2013-07-21 02:34:00,
2013-07-20 22:39:00,73.8,73.8,30.07,North,0,0.0,0.0,100,0.00,,,0.20,WUHU21623XXSP,2013-07-21 02:39:00,
2013-07-20 22:44:00,73.8,73.8,30.07,NNW,337,0.0,0.0,100,0.02,,,0.22,WUHU21623XXSP,2013-07-21 02:44:00,
2013-07-20 22:49:00,73.8,73.8,30.08,NE,45,0.0,0.0,100,0.02,,,0.22,WUHU21623XXSP,2013-07-21 02:49:00,
2013-07-20 22:54:00,73.8,73.8,30.08,NNE,22,0.0,0.0,100,0.02,,,0.22,WUHU21623XXSP,2013-07-21 02:54:00,
2013-07-20 22:59:00,73.8,73.8,30.08,North,0,0.0,0.0,100,0.02,,,0.22,WUHU21623XXSP,2013-07-21 02:59:00,
2013-07-20 23:04:00,73.6,73.6,30.07,NE,45,0.0,0.0,100,0.02,,,0.22,WUHU21623XXSP,2013-07-21 03:04:00,
2013-07-20 23:09:00,73.4,73.4,30.07,NNE,22,0.0,0.0,100,0.02,,,0.22,WUHU21623XXSP,2013-07-21 03:09:00,
2013-07-20 23:14:00,73.4,73.4,30.08,NNE,22,0.0,0.0,100,0.02,,,0.22,WUHU21623XXSP,2013-07-21 03:14:00,
2013-07-20 23:19:00,73.4,73.4,30.08,SE,135,0.0,0.0,100,0.02,,,0.22,WUHU21623XXSP,2013-07-21 03:19:00,
2013-07-20 23:24:00,73.4,73.4,30.08,ENE,67,0.0,0.0,100,0.02,,,0.22,WUHU21623XXSP,2013-07-21 03:24:00,
2013-07-20 23:30:00,73.4,73.4,30.08,East,90,0.0,0.0,100,0.02,,,0.22,WUHU21623XXSP,2013-07-21 03:30:00,
2013-07-20 23:35:00,73.4,73.4,30.08,NNE,22,0.0,0.0,100,0.02,,,0.22,WUHU21623XXSP,2013-07-21 03:35:00,
2013-07-20 23:40:00,73.4,73.4,30.08,NNE,22,0.0,0.0,100,0.02,,,0.22,WUHU21623XXSP,2013-07-21 03:40:00,
2013-07-20 23:45:00,73.4,73.4,30.08,NNE,22,0.0,0.0,100,0.00,,,0.22,WUHU21623XXSP,2013-07-21 03:45:00,
2013-07-20 23:50:00,73.2,73.2,30.08,East,90,0.0,0.0,100,0.00,,,0.22,WUHU21623XXSP,2013-07-21 03:50:00,
2013-07-20 23:53:00,73.4,73.4,30.08,NE,45,0.0,0.0,100,0.00,,,0.22,WUHU21623XXSP,2013-07-21 03:53:00,
2013-07-20 23:55:00,73.4,73.4,30.08,East,90,0.0,0.0,100,0.00,,,0.22,WUHU21623XXSP,2013-07-21 03:55:00,